Back to catalog

COSMOS 252 DEB

AliveLEO
NORAD 3784·DEBRIS·🇷🇺 Russia

Launched Nov 1, 1968 from Baikonur Cosmodrome

Loading…

Next Passes (next 24 hours)

TLE

FreshSource: Space-Track

Epoch: Sep 14, 2026, 01:50 UTC

1 03784U 68097AW  26257.07683780  .00002628  00000-0  15798-2 0  9993
2 03784  62.2398 136.4385 0637361  85.3781 281.9694 13.37572229 81887

Track COSMOS 252 DEB in real time with AllMySat

Download on the App Store